Weather Roundup
Issued by NWS

Home | Current Version | Previous Version | Text Only | Print | Product List | Glossary On
Versions: 1 2 3 4 5 6 7 8 9 10 11 12 13 14 15 16 17 18 19 20 21 22 23 24 25 26 27 28 29 30 31 32 33 34 35 36 37 38 39 40 41 42 43 44 45 46 47 48 49 50
711
NZUS93 KARX 221159
HRRWXR

CURRENT HOURLY OBSERVATIONS ACROSS
MUCH OF THE UPPER MISSISSIPPI VALLEY
NATIONAL WEATHER SERVICE LA CROSSE WI
700 AM CDT TUE AUG 22 2017


...SOUTHEAST MINNESOTA...


CITY           SKY/WX    TMP DP  RH WIND       PRES   REMARKS
ROCHESTER      PTCLDY    59  59 100 NW12      29.97R
ROCHESTER/MAYO FAIR      60  60  99 NW12G17   29.96R
WINONA         PTCLDY    63  59  88 NW8       29.93R
AUSTIN         CLEAR     59  55  88 NW7       29.98R
ALBERT LEA     CLEAR     61  61 100 NW7       30.00R
DODGE CENTER   CLEAR     59  55  88 NW10      29.98R
PRESTON        CLEAR     59  57  93 NW13      29.96R
OWATONNA       CLEAR     57  55  94 NW8       30.00R
FARIBAULT      CLEAR     57  55  94 NW6       30.00R
$$

...ELSEWHERE IN MINNESOTA...


CITY           SKY/WX    TMP DP  RH WIND       PRES   REMARKS
MINNEAPOLIS    CLEAR     60  54  80 NW14      29.98R
INTNL FALLS    CLOUDY    50  48  93 W5        29.90R
DULUTH         MOCLDY    52  52 100 NW7       29.92R
RED WING       MOCLDY    63  57  82 NW8       29.94R
REDWOOD FALLS  CLEAR     54  51  90 NW9       30.06R
MANKATO        CLEAR     57  55  93 NW7       30.02R
WORTHINGTON    CLEAR     53  50  89 NW7       30.10R
FAIRMONT       CLEAR     57  54  89 NW12      30.05R
$$

...SOUTHWEST WISCONSIN...


CITY           SKY/WX    TMP DP  RH WIND       PRES   REMARKS
LA CROSSE      CLEAR     68  62  81 NW16      29.89R
PRAIRIE DU CHI CLOUDY    65  61  89 W6        29.90R
BOSCOBEL       CLOUDY    67  63  87 CALM      29.89R
LONE ROCK      CLOUDY    66  64  93 W7        29.87R
PLATTEVILLE    CLOUDY    64  64 100 W6        29.91R
FORT MC COY    MOCLDY    62  60  94 W8        29.87R
MAUSTON-NEW LI CLOUDY    66  63  90 W6        29.84R
VIROQUA        CLOUDY    63  63 100 CALM      29.90R
WIS DELLS      CLOUDY    65  61  88 W7        29.86R
$$

...ELSEWHERE IN WISCONSIN...


CITY           SKY/WX    TMP DP  RH WIND       PRES   REMARKS
MILWAUKEE      CLOUDY    71  63  75 W10       29.82R
MADISON        CLOUDY    66  62  87 VRB3      29.85R
GREEN BAY      PTCLDY    66  64  93 W8G20     29.76R
EAU CLAIRE     NOT AVBL
BLACK RVR FLS  PTSUNNY   64  62  96 NW9       29.88R
MEDFORD        MOCLDY    57  54  90 NW10G16   29.87R
WAUSAU         MOCLDY    62  55  77 NW10      29.83R
WIS RAPIDS     PTCLDY    65  62  90 NW9       29.85R
MARSHFIELD     PTCLDY    61  56  83 N16       29.86R
RICE LAKE      CLEAR     57  55  94 NW5       29.93R
$$

...NORTHEAST IOWA...


CITY           SKY/WX    TMP DP  RH WIND       PRES   REMARKS
WATERLOO       CLEAR     62  60  93 NW9       29.96R
DUBUQUE        CLOUDY    64  62  93 MISG      29.92S
DECORAH        MOCLDY    61  61 100 VRB6      29.93R
MASON CITY     NOT AVBL
CHARLES CITY   CLEAR     61  61 100 NW9       29.97R
OELWEIN        MOCLDY    63  63 100 NW12      29.96R
$$

...ELSEWHERE IN IOWA...


CITY           SKY/WX    TMP DP  RH WIND       PRES   REMARKS
DES MOINES     PTCLDY    64  62  93 NW10      30.02R
IOWA CITY      MOCLDY    66  63  90 W7        29.97R
FORT DODGE     CLEAR     59  54  82 NW3       30.04R
MARSHALLTOWN   CLEAR     62  61  96 W9        29.99R
CEDAR RAPIDS   CLOUDY    63  63 100 W13       29.95R
$$

...NORTHERN ILLINOIS...


CITY           SKY/WX    TMP DP  RH WIND       PRES   REMARKS
CHICAGO-OHARE  CLOUDY    72  66  81 W9        29.88R
CHICAGO-MIDWAY CLOUDY    71  68  90 W9        29.88S
MOLINE         CLOUDY    68  65  90 W6        29.93R
ROCKFORD       CLOUDY    68  64  87 W8        29.90R
PEORIA         LGT RAIN  68  68 100 N3        29.95R
$$

NOTE: "FAIR" INDICATES FEW OR NO CLOUDS BELOW 12,000 FEET WITH NO
SIGNIFICANT WEATHER AND/OR OBSTRUCTIONS TO VISIBILITY. WIND
SPEEDS ARE IN MILES-PER-HOUR.




USA.gov is the U.S. government's official web portal to all federal, state and local government web resources and services.